TimeMDT,TemperatureF,Dew PointF,Humidity,Sea Level PressureIn,VisibilityMPH,Wind Direction,Wind SpeedMPH,Gust SpeedMPH,PrecipitationIn,Events,Conditions,WindDirDegrees,DateUTC
12:15 AM,64.4,41.0,42,30.26,10.0,NE,4.6,-,N/A,,Partly Cloudy,40,2013-07-23 06:15:00
12:35 AM,68.0,42.8,40,30.26,10.0,Calm,Calm,-,N/A,,Clear,0,2013-07-23 06:35:00
12:55 AM,66.2,42.8,43,30.26,10.0,East,6.9,-,N/A,,Scattered Clouds,100,2013-07-23 06:55:00
1:15 AM,64.4,42.8,45,30.26,10.0,South,4.6,-,N/A,,Partly Cloudy,190,2013-07-23 07:15:00
1:35 AM,64.4,41.0,42,30.26,10.0,North,6.9,-,N/A,,Clear,10,2013-07-23 07:35:00
1:55 AM,62.6,42.8,48,30.26,10.0,Calm,Calm,-,N/A,,Clear,0,2013-07-23 07:55:00
2:15 AM,64.4,42.8,45,30.26,10.0,East,5.8,-,N/A,,Clear,80,2013-07-23 08:15:00
2:35 AM,62.6,41.0,45,30.26,10.0,NE,3.5,-,N/A,,Clear,50,2013-07-23 08:35:00
2:55 AM,62.6,42.8,48,30.26,10.0,NE,4.6,-,N/A,,Clear,50,2013-07-23 08:55:00
3:15 AM,60.8,39.2,45,30.26,10.0,NNW,3.5,-,N/A,,Clear,340,2013-07-23 09:15:00
3:35 AM,57.2,39.2,51,30.26,10.0,NNW,3.5,-,N/A,,Clear,340,2013-07-23 09:35:00
3:55 AM,57.2,39.2,51,30.26,10.0,North,5.8,-,N/A,,Clear,360,2013-07-23 09:55:00
4:15 AM,57.2,39.2,51,30.26,10.0,North,3.5,-,N/A,,Clear,10,2013-07-23 10:15:00
4:35 AM,57.2,41.0,55,30.26,10.0,NNE,5.8,-,N/A,,Clear,20,2013-07-23 10:35:00
4:55 AM,57.2,41.0,55,30.26,10.0,North,4.6,-,N/A,,Clear,360,2013-07-23 10:55:00
5:15 AM,57.2,39.2,51,30.26,10.0,North,4.6,-,N/A,,Clear,360,2013-07-23 11:15:00
5:35 AM,57.2,39.2,51,30.27,10.0,NNE,3.5,-,N/A,,Clear,20,2013-07-23 11:35:00
5:55 AM,57.2,41.0,55,30.27,10.0,NE,3.5,-,N/A,,Clear,50,2013-07-23 11:55:00
6:15 AM,55.4,42.8,63,30.27,10.0,East,5.8,-,N/A,,Clear,90,2013-07-23 12:15:00
6:35 AM,57.2,42.8,59,30.28,10.0,East,5.8,-,N/A,,Clear,100,2013-07-23 12:35:00
6:55 AM,55.4,39.2,54,30.28,10.0,NNW,4.6,-,N/A,,Clear,330,2013-07-23 12:55:00
7:15 AM,55.4,39.2,54,30.28,10.0,North,5.8,-,N/A,,Clear,360,2013-07-23 13:15:00
7:35 AM,59.0,42.8,55,30.28,10.0,North,4.6,-,N/A,,Clear,10,2013-07-23 13:35:00
7:55 AM,62.6,42.8,48,30.28,10.0,NNE,3.5,-,N/A,,Clear,30,2013-07-23 13:55:00
8:15 AM,64.4,42.8,45,30.29,10.0,North,6.9,-,N/A,,Clear,350,2013-07-23 14:15:00
8:35 AM,66.2,42.8,43,30.29,10.0,North,5.8,-,N/A,,Clear,350,2013-07-23 14:35:00
8:55 AM,68.0,44.6,43,30.29,10.0,NNW,4.6,-,N/A,,Clear,340,2013-07-23 14:55:00
9:15 AM,69.8,44.6,40,30.29,10.0,NW,4.6,-,N/A,,Clear,320,2013-07-23 15:15:00
9:35 AM,71.6,44.6,38,30.29,10.0,NW,4.6,-,N/A,,Clear,310,2013-07-23 15:35:00
9:55 AM,73.4,44.6,36,30.28,10.0,Calm,Calm,-,N/A,,Clear,0,2013-07-23 15:55:00
10:15 AM,75.2,44.6,34,30.28,10.0,Calm,Calm,-,N/A,,Clear,0,2013-07-23 16:15:00
10:35 AM,78.8,46.4,32,30.28,10.0,Calm,Calm,-,N/A,,Clear,0,2013-07-23 16:35:00
10:55 AM,-9999,-9999,N/A,30.27,10.0,Calm,Calm,-,N/A,,Clear,0,2013-07-23 16:55:00
11:15 AM,80.6,46.4,30,30.27,10.0,Calm,Calm,-,N/A,,Clear,0,2013-07-23 17:15:00
11:35 AM,82.4,46.4,28,30.27,10.0,Calm,Calm,-,N/A,,Clear,0,2013-07-23 17:35:00
11:55 AM,84.2,46.4,27,30.26,10.0,NE,3.5,-,N/A,,Clear,40,2013-07-23 17:55:00
12:15 PM,86.0,46.4,25,30.26,10.0,East,5.8,-,N/A,,Clear,80,2013-07-23 18:15:00
12:35 PM,86.0,44.6,23,30.25,10.0,ENE,6.9,-,N/A,,Clear,70,2013-07-23 18:35:00
12:55 PM,87.8,44.6,22,30.24,10.0,ENE,13.8,17.3,N/A,,Clear,70,2013-07-23 18:55:00
1:15 PM,89.6,41.0,18,30.24,10.0,ENE,18.4,28.8,N/A,,Partly Cloudy,70,2013-07-23 19:15:00
1:35 PM,-9999,-9999,N/A,30.25,10.0,SE,17.3,24.2,N/A,,Partly Cloudy,130,2013-07-23 19:35:00
1:55 PM,-9999,-9999,N/A,30.25,9.0,ESE,25.3,36.8,N/A,,Mostly Cloudy,120,2013-07-23 19:55:00
2:15 PM,82.4,39.2,21,30.27,10.0,ESE,20.7,28.8,N/A,,Scattered Clouds,120,2013-07-23 20:15:00
2:35 PM,82.4,39.2,21,30.28,10.0,SE,8.1,17.3,N/A,,Clear,140,2013-07-23 20:35:00
2:55 PM,82.4,37.4,20,30.28,10.0,SSE,5.8,-,N/A,,Mostly Cloudy,150,2013-07-23 20:55:00
3:15 PM,78.8,42.8,28,30.27,10.0,WSW,27.6,34.5,N/A,,Overcast,250,2013-07-23 21:15:00
3:35 PM,77.0,42.8,29,30.29,10.0,West,15.0,19.6,N/A,,Mostly Cloudy,260,2013-07-23 21:35:00
3:55 PM,78.8,42.8,28,30.28,10.0,West,11.5,-,N/A,,Clear,270,2013-07-23 21:55:00
4:15 PM,77.0,42.8,29,30.27,10.0,WSW,12.7,-,N/A,,Partly Cloudy,250,2013-07-23 22:15:00
4:35 PM,78.8,42.8,28,30.28,10.0,North,6.9,-,N/A,,Clear,10,2013-07-23 22:35:00
4:55 PM,78.8,42.8,28,30.28,10.0,NNW,3.5,-,N/A,,Mostly Cloudy,340,2013-07-23 22:55:00
5:15 PM,78.8,39.2,24,30.26,10.0,WNW,9.2,-,N/A,,Scattered Clouds,300,2013-07-23 23:15:00
5:35 PM,78.8,41.0,26,30.27,10.0,Calm,Calm,-,N/A,,Clear,0,2013-07-23 23:35:00
5:55 PM,80.6,41.0,24,30.26,10.0,East,4.6,-,N/A,,Clear,80,2013-07-23 23:55:00
6:15 PM,80.6,39.2,23,30.25,10.0,North,5.8,-,N/A,,Clear,10,2013-07-24 00:15:00
6:35 PM,80.6,39.2,23,30.25,10.0,South,6.9,-,N/A,,Clear,190,2013-07-24 00:35:00
6:55 PM,78.8,42.8,28,30.25,10.0,South,8.1,-,N/A,,Clear,170,2013-07-24 00:55:00
7:15 PM,78.8,42.8,28,30.25,10.0,SSE,5.8,-,N/A,,Clear,150,2013-07-24 01:15:00
7:35 PM,77.0,41.0,28,30.26,10.0,SSW,8.1,-,N/A,,Clear,210,2013-07-24 01:35:00
7:55 PM,75.2,39.2,27,30.26,10.0,SW,4.6,-,N/A,,Clear,230,2013-07-24 01:55:00
8:15 PM,75.2,41.0,29,30.26,10.0,Calm,Calm,-,N/A,,Clear,0,2013-07-24 02:15:00
8:35 PM,73.4,41.0,31,30.27,10.0,NE,5.8,-,N/A,,Clear,50,2013-07-24 02:35:00
8:55 PM,71.6,44.6,38,30.27,10.0,NE,10.4,-,N/A,,Clear,50,2013-07-24 02:55:00
9:15 PM,71.6,44.6,38,30.28,10.0,NE,8.1,-,N/A,,Clear,50,2013-07-24 03:15:00
9:35 PM,71.6,44.6,38,30.29,10.0,NE,6.9,-,N/A,,Clear,50,2013-07-24 03:35:00
9:55 PM,69.8,42.8,38,30.30,10.0,ESE,6.9,-,N/A,,Mostly Cloudy,110,2013-07-24 03:55:00
10:15 PM,69.8,44.6,40,30.30,10.0,ESE,6.9,-,N/A,,Mostly Cloudy,120,2013-07-24 04:15:00
10:35 PM,68.0,42.8,40,30.30,10.0,SE,8.1,-,N/A,,Scattered Clouds,130,2013-07-24 04:35:00
10:55 PM,66.2,42.8,43,30.30,10.0,SE,5.8,-,N/A,,Partly Cloudy,140,2013-07-24 04:55:00
11:15 PM,66.2,42.8,43,30.32,10.0,East,6.9,-,N/A,,Clear,100,2013-07-24 05:15:00
11:35 PM,66.2,42.8,43,30.32,10.0,SE,9.2,-,N/A,,Clear,130,2013-07-24 05:35:00
11:55 PM,68.0,42.8,40,30.32,10.0,East,6.9,-,N/A,,Partly Cloudy,80,2013-07-24 05:55:00